OBJECT AH, 43789

Orbit data source: Space-Track

You're viewing an Uncataloged Satellite

Recently launched and/or uncataloged satellites may have evolving metadata. Metadata may include but not limited to: Owner, Maufacturer, Bus, Motor, and Mission.

OBJECT AH, 43789 is a satellite in SSO that was launched on Mon, 03 Dec 2018 UTC via an FALCON 9 launch vehicle from the Air Force Western Test Range (AFWTR). Unknown objects in Earth's orbit typically refer to objects detected orbiting the Earth but have not yet been identified or cataloged. These objects could be anything from previously untracked satellites, spent rocket stages, debris from satellite collisions, or even natural meteoroids temporarily captured by Earth's gravity.

Loading next visibility...
OBJECT AH details
Identifier
43789, 2018-099AH
Orbit
SSO
Last TLE update10 hours ago
Origin
Flag of TBDIPSF (TBD)
ManufacturerIPSF
MissionNon-operational Amateur Technology
Bus & MotorCUBESAT 1U, Unknown motor
Mass1 kg wet, 1 kg dry
Launch date (UTC)
2018-12-03 (6 years ago)
Launch vehicle
FALCON 9
Launch site
Air Force Western Test Range (AFWTR)
Object typeUnknown
Shape & HBRBox + 2 Pan, 0.2 m
Radar Cross Section0.019 m², Small (<0.1 m²)

Expand to show TLE details & history

TLE from 10 hours ago
0 OBJECT AH
1 43789U 18099AH  24361.12027154  .00036594  00000-0  15056-2 0  9992
2 43789  97.4945  61.7686 0012041  13.3425 346.8128 15.23982382331698
Epoch: 2024-12-26T02:53Z
Definitive object data (Epoch: 2024-12-26T02:53:11.461Z)
Latitude-0.00001°
Longitude-76.63338°
Altitude488.878 km
Speed7.625 km/s
True Right ascension04h 07m 04s
True Declination0° 00' 00"
Sunlit
Object was in full shadow at TLE epoch
Visualization TLE readout
Latitude33.27788°
Longitude-81.15942°
Altitude490.515 km
Speed7.627 km/s
Apparent Right ascension02h 00m 18s
Apparent Declination-1° 59' 36"
Sunlit
Object is in full shadow
Visualization observer readout
Local Sidereal Time11:50:45
Azimuth313.882° NW
Elevation-42.036°
Doppler factor1
Orbital elements
Apogee altitude499.078 km
Perigee altitude482.536 km
Semi-major axis6,868.944 km
Eccentricity0.0012041
Inclination97.4945°
RAAN61.7686°
Arg. of periapsis13.3425°
True anomaly346.78128°
Mean anomaly346.8128°
Eccentric anomaly346.79704°
Mean motion3.81249 °/min
BSTAR0.0015056
Orbital period94.43 mins
Loading maneuver chart data...
Loading historical data...
Loading historical data...
Loading historical data...
Loading historical data...
Loading historical data...
Loading historical data...
Loading historical data...

OBJECT AH Visibility forecast

Observer location: undefined°, undefined

Span
Click to sort rows by Start time (UTC) header in descending order
Start Az.
Max El. time (UTC)
Max El. Az.
Max El.
End time (UTC)
End Az.
5 mins2024-12-26 17:38:14.245Z344.456° N2024-12-26 17:40:14.245Z292.961° NW30.811°2024-12-26 17:43:14.245Z222.73° SW
5 mins2024-12-27 04:14:14.245Z159.663° S2024-12-27 04:16:14.245Z125.458° SE43.011°2024-12-27 04:19:14.245Z352.584° N
|